Kincheloe, MI

7:22 PM EDT on August 31, 2016 (GMT -0400)
Chippewa County International

Weather History for KCIU - September, 2014

Change the Weather History Date:

Friday, September 19, 2014

  Actual Average Record
Temperature  
Mean Temperature 50 °F -  
Max Temperature 64 °F 64 °F 77 °F (1998)
Min Temperature 37 °F 41 °F 25 °F (1979)
Degree Days  
Heating Degree Days 14    
Moisture  
Dew Point 47 °F    
Average Humidity 84    
Maximum Humidity 100    
Minimum Humidity 64    
Precipitation  
Precipitation 0.08 in - - ()
Sea Level Pressure  
Sea Level Pressure 30.07 in    
Wind  
Wind Speed 10 mph (SSE)    
Max Wind Speed 20 mph    
Max Gust Speed 25 mph    
Visibility 10 miles    
Events Thunderstorm    
Averages and records for this station are not official NWS values.
T = Trace of Precipitation, MM = Missing Value Source: NWS Daily Summary

Daily Weather History Graph

Daily Weather History Graph

Search for Another Location

Airport or City:

Trip Planner

Search our weather history database for the weather conditions in past years. The results will help you decide how hot, cold, wet, or windy it might be!

Date:

Astronomy

Sep. 19, 2014 Rise Set
Actual Time 7:21 AM EDT 7:41 PM EDT
Civil Twilight 6:50 AM EDT 8:11 PM EDT
Nautical Twilight 6:15 AM EDT 8:46 PM EDT
Astronomical Twilight 5:38 AM EDT 9:23 PM EDT
Moon 2:53 AM EDT (9/19) 5:19 PM EDT (9/19)
Length of Visible Light 13h 20m
Length of Day
12h 20m
Waning Crescent, 18% of the Moon is Illuminated
Sep 19
Waning Crescent
Sep 24
New
Oct 1
First Quarter
Oct 8
Full
Oct 15
Last Quarter

Hourly Weather History & Observations

Time (EDT) Temp. Windchill Dew Point Humidity Pressure Visibility Wind Dir Wind Speed Gust Speed Precip Events Conditions
12:15 AM 39.2 °F 33.6 °F 37.4 °F 93% 30.23 in 10.0 mi SE 8.1 mph - N/A   Clear
12:35 AM 37.4 °F 32.1 °F 37.4 °F 100% 30.23 in 10.0 mi SE 6.9 mph - N/A   Clear
12:55 AM 37.4 °F 32.1 °F 35.6 °F 93% 30.23 in 10.0 mi SE 6.9 mph - N/A   Clear
1:15 AM 37.4 °F 32.1 °F 37.4 °F 100% 30.22 in 10.0 mi SSE 6.9 mph - N/A   Partly Cloudy
1:35 AM 37.4 °F 32.1 °F 37.4 °F 100% 30.22 in 10.0 mi SSE 6.9 mph - N/A   Scattered Clouds
1:55 AM 37.4 °F 32.1 °F 37.4 °F 100% 30.22 in 10.0 mi SE 6.9 mph - N/A   Mostly Cloudy
2:15 AM 37.4 °F 32.1 °F 37.4 °F 100% 30.21 in 10.0 mi SE 6.9 mph - N/A   Partly Cloudy
2:35 AM 37.4 °F 32.1 °F 37.4 °F 100% 30.22 in 10.0 mi SSE 6.9 mph - N/A   Clear
2:55 AM 39.2 °F 33.6 °F 39.2 °F 100% 30.21 in 10.0 mi SSE 8.1 mph - N/A   Clear
3:15 AM 37.4 °F 30.8 °F 37.4 °F 100% 30.20 in 10.0 mi SSE 9.2 mph - N/A   Clear
3:35 AM 39.2 °F 34.2 °F 39.2 °F 100% 30.21 in 10.0 mi SSE 6.9 mph - N/A   Clear
3:55 AM 39.2 °F 35.0 °F 37.4 °F 93% 30.21 in 10.0 mi SSE 5.8 mph - N/A   Mostly Cloudy
4:15 AM 41.0 °F 37.1 °F 41.0 °F 100% 30.21 in 10.0 mi SE 5.8 mph - N/A   Overcast
4:35 AM 42.8 °F 41.1 °F 42.8 °F 100% 30.21 in 10.0 mi SE 3.5 mph - N/A   Overcast
4:55 AM 42.8 °F 39.3 °F 42.8 °F 100% 30.21 in 10.0 mi SE 5.8 mph - N/A   Overcast
5:15 AM 42.8 °F 38.6 °F 42.8 °F 100% 30.20 in 10.0 mi SSE 6.9 mph - N/A   Overcast
5:35 AM 44.6 °F 40.2 °F 42.8 °F 93% 30.20 in 10.0 mi SSE 8.1 mph - N/A   Overcast
5:55 AM 44.6 °F 41.4 °F 42.8 °F 93% 30.20 in 10.0 mi SE 5.8 mph - N/A   Overcast
6:15 AM 44.6 °F 40.2 °F 42.8 °F 93% 30.20 in 10.0 mi SE 8.1 mph - N/A   Overcast
6:35 AM 46.4 °F 41.9 °F 44.6 °F 93% 30.21 in 10.0 mi SSE 9.2 mph - N/A   Overcast
6:55 AM 46.4 °F 41.1 °F 44.6 °F 93% 30.20 in 10.0 mi SE 11.5 mph - N/A   Overcast
7:15 AM 46.4 °F 41.9 °F 44.6 °F 93% 30.20 in 10.0 mi SE 9.2 mph - N/A   Overcast
7:35 AM 46.4 °F 40.7 °F 44.6 °F 93% 30.20 in 10.0 mi SSE 12.7 mph - N/A   Overcast
7:55 AM 48.2 °F - 44.6 °F 87% 30.20 in 10.0 mi SSE 10.4 mph - N/A   Overcast
8:15 AM 48.2 °F - 44.6 °F 87% 30.20 in 10.0 mi SSE 12.7 mph - N/A   Overcast
8:35 AM 48.2 °F - 44.6 °F 87% 30.19 in 10.0 mi SSE 11.5 mph 18.4 mph N/A   Overcast
8:55 AM 48.2 °F - 44.6 °F 87% 30.18 in 10.0 mi SSE 13.8 mph - N/A   Overcast
9:15 AM 48.2 °F - 46.4 °F 93% 30.17 in 10.0 mi SSE 10.4 mph 18.4 mph N/A   Overcast
9:35 AM 48.2 °F - 46.4 °F 93% 30.17 in 10.0 mi SSE 11.5 mph 19.6 mph N/A   Overcast
9:55 AM 48.2 °F - 46.4 °F 93% 30.17 in 10.0 mi SSE 10.4 mph - N/A   Overcast
10:15 AM 50.0 °F - 46.4 °F 87% 30.17 in 10.0 mi SSE 12.7 mph - N/A   Overcast
10:35 AM 50.0 °F - 46.4 °F 87% 30.17 in 10.0 mi SSE 11.5 mph - N/A   Overcast
10:55 AM 51.8 °F - 46.4 °F 82% 30.16 in 10.0 mi SE 13.8 mph - N/A   Overcast
11:15 AM 51.8 °F - 46.4 °F 82% 30.15 in 10.0 mi SSE 9.2 mph - N/A   Overcast
11:35 AM 51.8 °F - 46.4 °F 82% 30.14 in 10.0 mi SE 16.1 mph 19.6 mph N/A   Overcast
11:55 AM 53.6 °F - 46.4 °F 77% 30.13 in 10.0 mi SE 16.1 mph 20.7 mph N/A   Overcast
12:15 PM 53.6 °F - 46.4 °F 77% 30.11 in 10.0 mi SSE 16.1 mph - N/A   Mostly Cloudy
12:35 PM 55.4 °F - 48.2 °F 77% 30.11 in 10.0 mi SSE 16.1 mph - N/A   Clear
12:55 PM 57.2 °F - 48.2 °F 72% 30.11 in 10.0 mi SSE 12.7 mph 18.4 mph N/A   Clear
1:15 PM 59.0 °F - 48.2 °F 67% 30.09 in 10.0 mi SSE 15.0 mph - N/A   Scattered Clouds
1:35 PM 57.2 °F - 48.2 °F 72% 30.08 in 10.0 mi SE 17.3 mph 20.7 mph N/A   Scattered Clouds
1:55 PM 57.2 °F - 48.2 °F 72% 30.08 in 10.0 mi SE 13.8 mph 20.7 mph N/A   Partly Cloudy
2:35 PM 60.8 °F - 51.8 °F 72% 30.06 in 10.0 mi SSE 15.0 mph 21.9 mph N/A   Clear
2:55 PM 62.6 °F - 51.8 °F 68% 30.04 in 10.0 mi SSE 16.1 mph 21.9 mph N/A   Clear
3:35 PM 62.6 °F - 51.8 °F 68% 30.01 in 10.0 mi SE 19.6 mph 23.0 mph N/A   Clear
3:55 PM 62.6 °F - 51.8 °F 68% 29.98 in 10.0 mi SE 18.4 mph 24.2 mph N/A   Clear
4:15 PM 62.6 °F - 51.8 °F 68% 29.97 in 10.0 mi SSE 13.8 mph 18.4 mph N/A   Clear
4:35 PM 62.6 °F - 53.6 °F 72% 29.95 in 10.0 mi SSE 16.1 mph 23.0 mph N/A   Clear
4:55 PM 62.6 °F - 53.6 °F 72% 29.94 in 10.0 mi SE 16.1 mph 24.2 mph N/A   Clear
5:15 PM 64.4 °F - 53.6 °F 68% 29.93 in 10.0 mi SE 16.1 mph 24.2 mph N/A   Clear
5:35 PM 62.6 °F - 53.6 °F 72% 29.91 in 10.0 mi SSE 13.8 mph - N/A   Clear
5:55 PM 64.4 °F - 55.4 °F 73% 29.91 in 10.0 mi SSE 9.2 mph - N/A   Clear
6:15 PM 64.4 °F - 51.8 °F 64% 29.90 in 10.0 mi SSE 13.8 mph 18.4 mph N/A   Clear
6:35 PM 62.6 °F - 51.8 °F 68% 29.89 in 10.0 mi SSE 15.0 mph 19.6 mph N/A   Clear
6:55 PM 62.6 °F - 51.8 °F 68% 29.90 in 10.0 mi SSE 12.7 mph 19.6 mph N/A   Scattered Clouds
7:15 PM 62.6 °F - 51.8 °F 68% 29.90 in 10.0 mi SSE 12.7 mph 17.3 mph N/A   Scattered Clouds
7:35 PM 62.6 °F - 51.8 °F 68% 29.89 in 10.0 mi South 11.5 mph 16.1 mph N/A   Clear
7:55 PM 62.6 °F - 51.8 °F 68% 29.87 in 10.0 mi SSE 12.7 mph - N/A   Clear
8:15 PM 62.6 °F - 51.8 °F 68% 29.86 in 10.0 mi SSE 13.8 mph 19.6 mph N/A   Partly Cloudy
8:35 PM 62.6 °F - 51.8 °F 68% 29.84 in 10.0 mi SSE 15.0 mph 24.2 mph N/A   Partly Cloudy
8:55 PM 60.8 °F - 51.8 °F 72% 29.84 in 10.0 mi SSE 16.1 mph 23.0 mph N/A   Partly Cloudy
9:15 PM 60.8 °F - 51.8 °F 72% 29.81 in 10.0 mi SSE 18.4 mph 25.3 mph N/A   Clear
9:35 PM 60.8 °F - 51.8 °F 72% 29.81 in 10.0 mi SSE 16.1 mph 23.0 mph N/A   Clear
9:55 PM 60.8 °F - 51.8 °F 72% 29.83 in 10.0 mi South 9.2 mph 21.9 mph N/A   Partly Cloudy
10:15 PM 60.8 °F - 51.8 °F 72% 29.89 in 10.0 mi Calm Calm - N/A Thunderstorm Mostly Cloudy
10:35 PM 59.0 °F - 53.6 °F 82% 29.86 in 7.0 mi SE 10.4 mph - 0.07 in Thunderstorm Thunderstorm
10:55 PM 57.2 °F - 55.4 °F 94% 29.85 in 10.0 mi SSE 9.2 mph - 0.08 in   Overcast
11:15 PM 57.2 °F - 55.4 °F 94% 29.83 in 10.0 mi SSE 11.5 mph - N/A   Overcast
11:35 PM 57.2 °F - 55.4 °F 94% 29.81 in 10.0 mi SSE 12.7 mph - N/A   Overcast
11:55 PM 57.2 °F - 55.4 °F 94% 29.81 in 10.0 mi SSE 11.5 mph - N/A   Overcast